Simultaneous Nadir Overpasses (SNOs) Predictions

Prediction of SNOs between GOES-16 and NOAA-20 Satellite Orbit:

Table of predicted SNOs for the next 14.0 days since TLE Epoch: 2/3/2024
Index Date Time (GOES-16) GOES-16 Lat,Lon NOAA-20 Lat,Lon Distance(km) Time Diff (sec)
1 02/03/2024 06:38:55 -0.07, -75.20 0.56, -77.99 317.35 80
2 02/04/2024 06:17:30 -0.06, -75.21 -0.43, -73.45 199.21 80
3 02/05/2024 18:39:28 0.06, -75.22 -0.74, -78.76 404.07 80
4 02/06/2024 18:23:23 0.06, -75.22 0.26, -74.23 112.70 80
5 02/08/2024 06:45:12 -0.05, -75.22 0.93, -79.50 488.06 80
6 02/09/2024 06:23:48 -0.05, -75.22 -0.13, -74.98 28.94 80
7 02/11/2024 18:27:00 0.05, -75.25 -0.09, -75.74 56.38 80
8 02/12/2024 18:10:56 0.05, -75.26 0.97, -71.22 461.37 80
9 02/14/2024 06:32:44 -0.04, -75.28 0.25, -76.48 137.58 80
10 02/15/2024 06:11:20 -0.04, -75.29 -0.81, -71.96 380.31 80
11 02/16/2024 18:33:17 0.04, -75.32 -0.40, -77.26 221.01 80
